Maxwell AFB, AL

6:13 AM CST on January 24, 2018 (GMT -0600)
Maxwell Air Force Base

Weather History for KMXF - April, 2013

Change the Weather History Date:

Tuesday, April 2, 2013

  Actual Average Record
Temperature  
Mean Temperature 61 °F -  
Max Temperature 75 °F 73 °F 89 °F (2006)
Min Temperature 48 °F 52 °F 42 °F (2001)
Degree Days  
Heating Degree Days 4    
Growing Degree Days 11 (Base 50)    
Moisture  
Dew Point 46 °F    
Average Humidity 58    
Maximum Humidity 91    
Minimum Humidity 33    
Precipitation  
Precipitation 0.00 in - - ()
Sea Level Pressure  
Sea Level Pressure 30.11 in    
Wind  
Wind Speed 3 mph (NNE)    
Max Wind Speed 10 mph    
Max Gust Speed -    
Visibility 10 miles    
Events      
Averages and records for this station are not official NWS values.
T = Trace of Precipitation, MM = Missing Value Source: NWS Daily Summary

Daily Weather History Graph

Daily Weather History Graph

Search for Another Location

Airport or City:

Trip Planner

Search our weather history database for the weather conditions in past years. The results will help you decide how hot, cold, wet, or windy it might be!

Date:

Astronomy

Apr. 02, 2013 Rise Set
Actual Time 6:32 AM CDT 7:06 PM CDT
Civil Twilight 6:07 AM CDT 7:30 PM CDT
Nautical Twilight 5:38 AM CDT 8:00 PM CDT
Astronomical Twilight 5:08 AM CDT 8:29 PM CDT
Moon 12:56 AM CDT (4/2) 11:35 AM CDT (4/2)
Length of Visible Light 13h 23m
Length of Day
12h 34m
Waning Gibbous, 55% of the Moon is Illuminated
Apr 2
Waning Gibbous
Apr 2
Last Quarter
Apr 10
New
Apr 18
First Quarter
Apr 25
Full

Hourly Weather History & Observations

Time (CDT) Temp. Dew Point Humidity Pressure Visibility Wind Dir Wind Speed Gust Speed Precip Events Conditions
12:58 AM 52.7 °F 48.9 °F 87% 30.07 in 10.0 mi Calm Calm - N/A   Clear
1:58 AM 51.3 °F 48.7 °F 91% 30.07 in 10.0 mi Calm Calm - N/A   Clear
2:58 AM 54.9 °F 47.3 °F 76% 30.07 in 10.0 mi NE 4.6 mph - N/A   Clear
3:58 AM 54.1 °F 46.6 °F 76% 30.07 in 10.0 mi North 5.8 mph - N/A   Clear
4:58 AM 53.1 °F 46.6 °F 79% 30.09 in 10.0 mi North 5.8 mph - N/A   Clear
5:58 AM 48.6 °F 45.5 °F 89% 30.12 in 10.0 mi South 2.3 mph - N/A   Clear
6:58 AM 48.4 °F 45.9 °F 91% 30.14 in 10.0 mi Calm Calm - N/A   Clear
7:58 AM 55.2 °F 47.7 °F 76% 30.16 in 10.0 mi NNE 4.6 mph - N/A   Clear
8:58 AM 59.5 °F 47.1 °F 63% 30.16 in 10.0 mi NE 6.9 mph - N/A   Clear
9:58 AM 62.8 °F 46.4 °F 55% 30.18 in 10.0 mi NNE 4.6 mph - N/A   Clear
10:58 AM 65.8 °F 44.8 °F 47% 30.18 in 10.0 mi ENE 4.6 mph - N/A   Clear
11:58 AM 68.2 °F 45.7 °F 44% 30.16 in 10.0 mi NNE 3.5 mph - N/A   Clear
12:58 PM 70.7 °F 45.7 °F 41% 30.14 in 10.0 mi Variable 2.3 mph - N/A   Clear
1:58 PM 72.0 °F 45.3 °F 38% 30.12 in 10.0 mi Calm Calm - N/A   Clear
2:58 PM 73.4 °F 46.4 °F 38% 30.09 in 10.0 mi Variable 3.5 mph - N/A   Clear
3:58 PM 74.1 °F 44.4 °F 35% 30.07 in 10.0 mi WSW 4.6 mph - N/A   Clear
4:58 PM 74.7 °F 43.9 °F 33% 30.07 in 10.0 mi Variable 2.3 mph - N/A   Clear
5:58 PM 74.5 °F 45.1 °F 35% 30.05 in 10.0 mi NNW 3.5 mph - N/A   Clear
6:58 PM 71.6 °F 47.7 °F 43% 30.06 in 10.0 mi NE 3.5 mph - N/A   Clear
7:58 PM 66.9 °F 47.8 °F 50% 30.06 in 10.0 mi NNE 8.1 mph - N/A   Clear
8:58 PM 64.2 °F 46.0 °F 52% 30.09 in 10.0 mi NNE 6.9 mph - N/A   Clear
9:58 PM 61.3 °F 45.9 °F 57% 30.11 in 10.0 mi North 5.8 mph - N/A   Clear
10:58 PM 60.8 °F 43.9 °F 54% 30.10 in 10.0 mi NNE 10.4 mph - N/A   Clear
11:58 PM 59.2 °F 40.8 °F 51% 30.10 in 10.0 mi NNE 8.1 mph - N/A   Clear